Flag for Netherlands Weather past 2 weeks in Groningen, Netherlands

Now
55 °F

Mostly cloudy.


Feels Like: 50 °F
Forecast: 48 / 59 °F
Wind: 23 mph from Southwest

Location: Groningen Eelde Airport

Current Time: Jun 2, 2015 at 11:47:16 AM

Latest Report: Jun 2, 2015 at 10:55 AM


Visibility: N/A

Pressure: 29.65 "Hg

Humidity: 82%

Dew point: 50 °F

Location of GroningenLocation

Historic Weather in Groningen — Graph

°F

Groningen temperature yesterday

Maximum temperature yesterday: 61 °F (at 6:25 PM)
Minimum temperature yesterday: 43 °F (at 4:25 AM)
Average temperature yesterday: 53 °F

Past Weeks' High & Low Weather Summary

 TemperatureHumidityPressure
High68 °F (May 22, 1:55 PM)100% (May 21, 5:55 AM)30.30 "Hg (May 21, 5:55 AM)
Low41 °F (May 20, 11:25 PM)37% (May 24, 6:55 PM)29.53 "Hg (May 18, 7:55 PM)
Average52 °F77%29.95 "Hg
* Reported May 18 10:25 AM — Jun 2 10:25 AM, Groningen, Weather by CustomWeather, © 2015

Note: Actual official high and low records may vary slightly from our data, if they occured in-between our weather recording intervals... More about our weather records

Advertising

Groningen weather history for previous 24 hours

 ConditionsComfort  
Time TempWeatherWind HumidityBarometerVisibility
10:25 AM
Tue, Jun 2
54 °FMostly cloudy.24 mph88%29.65 "HgN/A
9:55 AM54 °FMostly cloudy.26 mph82%29.65 "HgN/A
9:25 AM54 °FDrizzle. Overcast.24 mph77%29.65 "HgN/A
8:55 AM54 °FLight rain. Overcast.24 mph77%29.65 "HgN/A
8:25 AM54 °FLight rain. Overcast.21 mph77%29.65 "HgN/A
7:55 AM55 °FOvercast.23 mph67%29.65 "HgN/A
7:25 AM55 °FMore clouds than sun.22 mph67%29.65 "HgN/A
6:55 AM55 °FClear.18 mph67%29.65 "HgN/A
5:25 AM54 °FClear.14 mph72%29.71 "HgN/A
4:55 AM54 °FPassing clouds.14 mph72%29.71 "HgN/A
4:25 AM54 °FPassing clouds.13 mph72%29.74 "HgN/A
3:55 AM54 °FPassing clouds.10 mph72%29.74 "HgN/A
3:25 AM54 °FPassing clouds.13 mph67%29.77 "HgN/A
2:55 AM54 °FLight rain. Passing clouds.10 mph67%29.80 "HgN/A
2:25 AM54 °FClear.9 mph67%29.80 "HgN/A
1:55 AM54 °FPassing clouds.8 mph67%29.83 "HgN/A
1:25 AM54 °FLight rain. Passing clouds.8 mph67%29.83 "HgN/A
12:55 AM54 °FClear.7 mph67%29.86 "HgN/A
12:25 AM54 °FClear.6 mph67%29.86 "HgN/A
11:55 PM
Mon, Jun 1
54 °FPassing clouds.6 mph67%29.86 "HgN/A
11:25 PM54 °FClear.6 mph67%29.89 "HgN/A
10:55 PM54 °FClear.5 mph72%29.89 "HgN/A
10:25 PM54 °FClear.3 mph72%29.92 "HgN/A
9:55 PM54 °FClear.3 mph72%29.92 "HgN/A
9:25 PM54 °FClear.2 mph72%29.92 "HgN/A
8:55 PM55 °FClear.6 mph67%29.92 "HgN/A
8:25 PM55 °FClear.5 mph67%29.95 "HgN/A
7:55 PM57 °FClear.8 mph59%29.95 "HgN/A
7:25 PM59 °FClear.8 mph59%29.95 "HgN/A
6:55 PM59 °FClear.10 mph55%29.95 "HgN/A
6:25 PM61 °FClear.12 mph52%29.95 "HgN/A
5:55 PM59 °FClear.9 mph51%29.95 "HgN/A
5:25 PM59 °FScattered clouds.10 mph51%29.98 "HgN/A
4:55 PM59 °FClear.12 mph51%29.98 "HgN/A
4:25 PM59 °FClear.10 mph48%29.98 "HgN/A
3:55 PM59 °FClear.12 mph48%29.98 "HgN/A
3:25 PM57 °FPassing clouds.13 mph55%29.98 "HgN/A
2:55 PM59 °FPassing clouds.15 mph51%29.98 "HgN/A
2:25 PM57 °FPassing clouds.13 mph55%29.98 "HgN/A
1:55 PM57 °FSunny.15 mph51%29.98 "HgN/A
1:25 PM59 °FPassing clouds.18 mph48%29.98 "HgN/A
12:55 PM59 °FClear.20 mph55%29.98 "HgN/A
12:25 PM59 °FPassing clouds.17 mph59%29.98 "HgN/A
11:55 AM55 °FClear.15 mph59%29.98 "HgN/A
11:25 AM55 °FClear.14 mph59%29.98 "HgN/A
Weather by CustomWeather, © 2015

See weather overviewHow to use our weather pages